| time (UTC) | temp F | wind direction | speed MPH | gust MPH | rain 1hr in | rain 24hr in | rain mn in | humidity % | barometer mb |
| 20260906124536 | 0 | 169 | 0.0 | 1.0 | 0.00 | 0.00 | 0.00 | 1012.2 | |
| 20260906123031 | 0 | 169 | 0.0 | 0.0 | 0.00 | 0.00 | 0.00 | 1012.1 | |
| 20260906121526 | 0 | 169 | 0.0 | 0.0 | 0.00 | 0.00 | 0.00 | 1011.9 | |
| 20260906120022 | 0 | 169 | 0.0 | 0.0 | 0.00 | 0.00 | 0.00 | 1011.8 | |
| 20260906114532 | 0 | 169 | 0.0 | 0.0 | 0.00 | 0.00 | 0.00 | 1011.7 | |
| 20260906113013 | 0 | 169 | 0.0 | 0.0 | 0.00 | 0.00 | 0.00 | 1011.6 | |
| 20260906111508 | 0 | 169 | 0.0 | 0.0 | 0.00 | 0.00 | 0.00 | 1011.3 | |
| 20260906110005 | 0 | 169 | 0.0 | 0.0 | 0.00 | 0.00 | 0.00 | 1011.2 | |
| 20260906104620 | 0 | 169 | 0.0 | 0.0 | 0.00 | 0.00 | 0.00 | 1011.1 | |
| 20260906103056 | 0 | 169 | 0.0 | 0.0 | 0.00 | 0.00 | 0.00 | 1011.0 | |
| 20260906101551 | 0 | 169 | 0.0 | 0.0 | 0.00 | 0.00 | 0.00 | 1011.1 | |
| 20260906100047 | 0 | 169 | 0.0 | 0.0 | 0.00 | 0.00 | 0.00 | 1011.1 | |
| 20260906094606 | 0 | 169 | 0.0 | 0.0 | 0.00 | 0.00 | 0.00 | 1011.2 | |
| 20260906093039 | 0 | 169 | 0.0 | 0.0 | 0.00 | 0.00 | 0.00 | 1011.3 | |
| 20260906091541 | 0 | 169 | 0.0 | 0.0 | 0.00 | 0.00 | 0.00 | 1011.2 | |
| 20260906090033 | 0 | 169 | 0.0 | 0.0 | 0.00 | 0.00 | 0.00 | 1011.1 | |
| 20260906084536 | 0 | 169 | 0.0 | 0.0 | 0.00 | 0.00 | 0.00 | 1011.1 | |
| 20260906083033 | 0 | 169 | 0.0 | 0.0 | 0.00 | 0.00 | 0.00 | 1010.8 | |
| 20260906081539 | 0 | 169 | 0.0 | 0.0 | 0.00 | 0.00 | 0.00 | 1010.7 | |
| 20260906080018 | 0 | 169 | 0.0 | 0.0 | 0.00 | 0.00 | 0.00 | 1010.8 | |
| 20260906074514 | 0 | 169 | 0.0 | 0.0 | 0.00 | 0.00 | 0.00 | 1010.7 | |
| 20260906073009 | 0 | 169 | 0.0 | 0.0 | 0.00 | 0.00 | 0.00 | 1010.7 | |
| 20260906071504 | 0 | 169 | 0.0 | 0.0 | 0.00 | 0.00 | 0.00 | 1010.5 | |
| 20260906070100 | 0 | 169 | 0.0 | 0.0 | 0.00 | 0.00 | 0.00 | 1010.9 | |
| 20260906064556 | 0 | 169 | 0.0 | 0.0 | 0.00 | 0.00 | 0.00 | 1010.9 | |
| 20260906063052 | 0 | 169 | 0.0 | 0.0 | 0.00 | 0.00 | 0.00 | 1011.3 | |
| 20260906061547 | 0 | 169 | 0.0 | 0.0 | 0.00 | 0.00 | 0.00 | 1011.5 | |
| 20260906060043 | 0 | 169 | 0.0 | 0.0 | 0.00 | 0.00 | 0.00 | 1011.7 | |
| 20260906054538 | 0 | 169 | 0.0 | 0.0 | 0.00 | 0.00 | 0.00 | 1012.0 | |
| 20260906053034 | 0 | 169 | 0.0 | 0.0 | 0.00 | 0.00 | 0.00 | 1012.2 | |
| 20260906051528 | 0 | 169 | 0.0 | 0.0 | 0.00 | 0.00 | 0.00 | 1012.3 | |
| 20260906050024 | 0 | 169 | 0.0 | 0.0 | 0.00 | 0.00 | 0.00 | 1012.2 | |
| 20260906044527 | 0 | 169 | 0.0 | 1.0 | 0.00 | 0.00 | 0.00 | 1012.3 | |
| 20260906043016 | 0 | 169 | 0.0 | 0.0 | 0.00 | 0.00 | 0.00 | 1012.2 | |
| 20260906041511 | 0 | 169 | 0.0 | 0.0 | 0.00 | 0.00 | 0.00 | 1012.1 | |
| 20260906040005 | 0 | 169 | 0.0 | 1.0 | 0.00 | 0.00 | 0.00 | 1012.2 | |
| 20260906034504 | 0 | 169 | 0.0 | 0.0 | 0.00 | 0.00 | 0.00 | 1012.1 | |
| 20260906033004 | 0 | 169 | 0.0 | 0.0 | 0.00 | 0.00 | 0.00 | 1012.1 | |
| 20260906031503 | 0 | 169 | 0.0 | 0.0 | 0.00 | 0.00 | 0.00 | 1012.1 | |
| 20260906030003 | 0 | 169 | 0.0 | 0.0 | 0.00 | 0.00 | 0.00 | 1012.2 | |
| 20260906024501 | 0 | 169 | 0.0 | 0.0 | 0.00 | 0.00 | 0.00 | 1012.2 | |
| 20260906023001 | 0 | 169 | 0.0 | 0.0 | 0.00 | 0.00 | 0.00 | 1012.5 | |
| 20260906021607 | 0 | 169 | 0.0 | 0.0 | 0.00 | 0.00 | 0.00 | 1012.4 | |
| 20260906020106 | 0 | 169 | 0.0 | 0.0 | 0.00 | 0.00 | 0.00 | 1012.2 | |
| 20260906014601 | 0 | 169 | 0.0 | 1.0 | 0.00 | 0.00 | 0.00 | 1012.1 | |
| 20260906013100 | 0 | 169 | 0.0 | 0.0 | 0.00 | 0.00 | 0.00 | 1012.0 | |
| 20260906011600 | 0 | 169 | 0.0 | 0.0 | 0.00 | 0.00 | 0.00 | 1012.0 | |
| 20260906010106 | 0 | 169 | 0.0 | 0.0 | 0.00 | 0.00 | 0.00 | 1011.5 | |
| 20260906004603 | 0 | 169 | 0.0 | 0.0 | 0.00 | 0.00 | 0.00 | 1011.4 | |
| 20260906003100 | 0 | 169 | 0.0 | 0.0 | 0.00 | 0.00 | 0.00 | 1011.1 | |
| 20260906001609 | 0 | 169 | 0.0 | 1.0 | 0.00 | 0.00 | 0.00 | 1011.0 | |
| 20260906000056 | 0 | 169 | 0.0 | 0.0 | 0.00 | 0.00 | 0.00 | 1011.3 | |
| 20260905234557 | 0 | 169 | 0.0 | 1.0 | 0.00 | 0.00 | 0.00 | 1011.2 | |
| 20260905233108 | 0 | 169 | 0.0 | 1.0 | 0.00 | 0.00 | 0.00 | 1011.4 | |
| 20260905231553 | 0 | 169 | 0.0 | 1.0 | 0.00 | 0.00 | 0.00 | 1011.3 | |
| 20260905230052 | 0 | 169 | 0.0 | 0.0 | 0.00 | 0.00 | 0.00 | 1011.7 | |
| 20260905224546 | 0 | 169 | 0.0 | 1.0 | 0.00 | 0.00 | 0.00 | 1011.8 | |
| 20260905223043 | 0 | 169 | 0.0 | 0.0 | 0.00 | 0.00 | 0.00 | 1011.7 | |
| 20260905221543 | 0 | 135 | 0.0 | 1.0 | 0.00 | 0.00 | 0.00 | 1011.5 | |
| 20260905220029 | 0 | 135 | 0.0 | 1.0 | 0.00 | 0.00 | 0.00 | 1011.1 | |
| 20260905214524 | 0 | 134 | 0.0 | 1.0 | 0.00 | 0.00 | 0.00 | 1010.5 | |
| 20260905213021 | 0 | 134 | 0.0 | 1.0 | 0.00 | 0.00 | 0.00 | 1010.3 | |
| 20260905211534 | 0 | 134 | 0.0 | 10.0 | 0.00 | 0.00 | 0.00 | 1010.9 | |
| 20260905210010 | 0 | 185 | 3.0 | 15.0 | 0.00 | 0.00 | 0.00 | 1011.7 | |
| 20260905204509 | 0 | 76 | 12.0 | 31.0 | 0.00 | 0.00 | 0.00 | 1011.3 | |
| 20260905203002 | 0 | 157 | 4.0 | 7.0 | 0.00 | 0.00 | 0.00 | 1010.7 | |
| 20260905201605 | 0 | 157 | 0.0 | 6.0 | 0.00 | 0.00 | 0.00 | 1009.8 | |
| 20260905200115 | 0 | 157 | 2.0 | 6.0 | 0.00 | 0.00 | 0.00 | 1009.9 | |
| 20260905194548 | 0 | 157 | 2.0 | 6.0 | 0.00 | 0.00 | 0.00 | 1010.2 | |
| 20260905193046 | 0 | 157 | 0.0 | 6.0 | 0.00 | 0.00 | 0.00 | 1010.2 | |
| 20260905191542 | 0 | 157 | 2.0 | 5.0 | 0.00 | 0.00 | 0.00 | 1010.4 | |
| 20260905190037 | 0 | 157 | 1.0 | 8.0 | 0.00 | 0.00 | 0.00 | 1010.5 | |
| 20260905184536 | 0 | 157 | 3.0 | 7.0 | 0.00 | 0.00 | 0.00 | 1010.8 | |
| 20260905183027 | 0 | 157 | 3.0 | 8.0 | 0.00 | 0.00 | 0.00 | 1011.1 | |
| 20260905181522 | 0 | 159 | 4.0 | 8.0 | 0.00 | 0.00 | 0.00 | 1011.4 | |
| 20260905180017 | 0 | 159 | 1.0 | 3.0 | 0.00 | 0.00 | 0.00 | 1011.7 | |
| 20260905174513 | 0 | 159 | 1.0 | 6.0 | 0.00 | 0.00 | 0.00 | 1011.8 | |
| 20260905173010 | 0 | 159 | 2.0 | 5.0 | 0.00 | 0.00 | 0.00 | 1012.0 | |
| 20260905171513 | 0 | 159 | 2.0 | 9.0 | 0.00 | 0.00 | 0.00 | 1012.2 | |
| 20260905170100 | 0 | 158 | 1.0 | 7.0 | 0.00 | 0.00 | 0.00 | 1012.5 | |
| 20260905164555 | 0 | 159 | 2.0 | 5.0 | 0.00 | 0.00 | 0.00 | 1012.9 | |
| 20260905163052 | 0 | 159 | 3.0 | 7.0 | 0.00 | 0.00 | 0.00 | 1013.1 | |
| 20260905161549 | 0 | 158 | 2.0 | 6.0 | 0.00 | 0.00 | 0.00 | 1013.3 | |
| 20260905160052 | 0 | 158 | 1.0 | 6.0 | 0.00 | 0.00 | 0.00 | 1013.3 | |
| 20260905154555 | 0 | 159 | 3.0 | 7.0 | 0.00 | 0.00 | 0.00 | 1013.5 | |
| 20260905153046 | 0 | 159 | 4.0 | 7.0 | 0.00 | 0.00 | 0.00 | 1013.6 | |
| 20260905153017 | 0 | 158 | 3.0 | 7.0 | 0.00 | 0.00 | 0.00 | 1013.6 | |
| 20260905151545 | 0 | 158 | 3.0 | 7.0 | 0.00 | 0.00 | 0.00 | 1013.7 | |
| 20260905150113 | 0 | 159 | 2.0 | 8.0 | 0.00 | 0.00 | 0.00 | 1013.9 | |
| 20260905144550 | 0 | 159 | 2.0 | 6.0 | 0.00 | 0.00 | 0.00 | 1014.1 | |
| 20260905143019 | 0 | 158 | 4.0 | 8.0 | 0.00 | 0.00 | 0.00 | 1014.1 | |
| 20260905141503 | 0 | 158 | 2.0 | 5.0 | 0.00 | 0.00 | 0.00 | 1014.2 | |
| 20260905140052 | 0 | 158 | 1.0 | 6.0 | 0.00 | 0.00 | 0.00 | 1014.2 | |
| 20260905134623 | 0 | 158 | 0.0 | 3.0 | 0.00 | 0.00 | 0.00 | 1014.2 | |
| 20260905133058 | 0 | 158 | 2.0 | 8.0 | 0.00 | 0.00 | 0.00 | 1014.3 | |
| 20260905131525 | 0 | 148 | 0.0 | 1.0 | 0.00 | 0.00 | 0.00 | 1014.4 |